[Iaude] MPEC L119: 2024 LH3 [a=1.10,e=0.15,i=9.2,H=24.3]
    mpec at cfa.harvard.edu 
    mpec at cfa.harvard.edu
       
    Tue Jun 11 11:02:24 EDT 2024
    
    
  
M.P.E.C. 2024-L119                                Issued 2024 June 11, 15:00 UT
     The Minor Planet Electronic Circulars contain information on unusual
         minor planets, routine data on comets and natural satellites,
         and occasional editorial announcements.  They are published
    on behalf of Division F of the International Astronomical Union by the
          Minor Planet Center, Smithsonian Astrophysical Observatory,
                          Cambridge, MA 02138, U.S.A.
			  
             Prepared using the Tamkin Foundation Computer Network
                              MPC at CFA.HARVARD.EDU
            URL https://www.minorplanetcenter.net/    ISSN 1523-6714
                                    2024 LH3                                    
Observations:
     K24L03H*1C2024 06 10.28361715 30 45.572-19 29 16.66         18.45GVEL119G96
     K24L03H 1C2024 06 10.28836215 30 44.406-19 28 06.92         18.48GVEL119G96
     K24L03H 1C2024 06 10.29310115 30 43.236-19 26 57.23               VEL119G96
     K24L03H 1C2024 06 10.29783015 30 42.066-19 25 47.14               VEL119G96
     K24L03H KC2024 06 10.32224515 30 36.090-19 19 45.91         18.67GVEL119I52
     K24L03H KC2024 06 10.32348415 30 35.802-19 19 27.41         18.64GVEL119I52
     K24L03H KC2024 06 10.32472315 30 35.507-19 19 08.98         18.74GVEL119I52
     K24L03H KC2024 06 10.32596115 30 35.208-19 18 50.76         18.79GVEL119I52
     K24L03H KC2024 06 10.35688615 30 27.925-19 11 09.46         18.61GVEL119I52
     K24L03H KC2024 06 10.35781815 30 27.716-19 10 55.52         18.64GVEL119I52
     K24L03H KC2024 06 10.35874815 30 27.493-19 10 41.77         18.75GVEL119I52
     K24L03H KC2024 06 10.35967515 30 27.281-19 10 27.84         18.79GVEL119I52
     K24L03H KC2024 06 10.52000 15 30 07.77 -18 27 23.5          18.9 VqEL119E23
     K24L03H KC2024 06 10.53389 15 30 04.27 -18 23 55.2          19.7 VqEL119E23
     K24L03H KC2024 06 10.54778 15 30 00.81 -18 20 25.2          18.9 VqEL119E23
     K24L03H  C2024 06 10.72245 15 29 44.02 -17 36 07.2          18.2 GVEL119M28
     K24L03H  C2024 06 10.72452 15 29 43.66 -17 35 35.9          18.4 GVEL119M28
     K24L03H  C2024 06 10.72655 15 29 43.20 -17 35 05.3          18.4 GVEL119M28
     K24L03H KC2024 06 10.77666 15 29 33.02 -17 23 00.4          18.8 GVEL119M21
     K24L03H KC2024 06 10.78712 15 29 30.43 -17 20 22.6          18.6 GVEL119M21
     K24L03H KC2024 06 10.79761 15 29 27.83 -17 17 43.2          18.6 GVEL119M21
     K24L03H KB2024 06 10.91145615 29 02.12 -16 52 05.5          18.3 GXEL119958
     K24L03H KC2024 06 10.94130215 28 55.013-16 44 34.40         18.4 GVEL119J95
     K24L03H KC2024 06 10.94432615 28 54.302-16 43 47.35         18.5 GVEL119J95
     K24L03H KC2024 06 10.94780615 28 53.455-16 42 52.92         18.2 GVEL119J95
     K24L03H KB2024 06 10.96068815 28 50.11 -16 39 17.9          18.2 GXEL119958
     K24L03H KB2024 06 10.96255715 28 49.59 -16 38 48.3          18.0 GXEL119958
     K24L03H KB2024 06 10.96438715 28 49.14 -16 38 20.3          18.2 GXEL119958
     K24L03H KB2024 06 11.03835415 28 39.492-16 15 35.25         18.3 VZEL119Y05
     K24L03H KB2024 06 11.04201415 28 38.523-16 14 37.75         18.6 VZEL119Y05
     K24L03H KB2024 06 11.04556515 28 37.572-16 13 41.70         18.6 VZEL119Y05
     K24L03H KB2024 06 11.14762 15 28 22.879-15 50 00.85         17.7 RZEL119H36
     K24L03H KB2024 06 11.15059 15 28 22.126-15 49 13.69         17.7 RZEL119H36
     K24L03H KB2024 06 11.15358 15 28 21.374-15 48 26.60         17.7 RZEL119H36
     K24L03H KC2024 06 11.15706215 28 18.86 -15 47 33.6          18.2 GVEL119H21
     K24L03H KC2024 06 11.15824915 28 18.57 -15 47 14.9          18.3 GVEL119H21
     K24L03H KC2024 06 11.15956615 28 18.24 -15 46 53.9          18.2 GVEL119H21
     K24L03H KC2024 06 11.16108215 28 17.87 -15 46 29.7          18.1 GVEL119H21
     K24L03H KC2024 06 11.29009 15 27 52.704-15 12 06.55         17.7 GVEL119U52
     K24L03H KC2024 06 11.29252 15 27 52.116-15 11 26.99         18.1 GVEL119U52
     K24L03H KC2024 06 11.29495 15 27 51.542-15 10 47.89         17.8 GVEL119U52
     K24L03H 1C2024 06 11.35749815 27 33.383-14 53 19.10         17.71GVEL119703
     K24L03H 1C2024 06 11.35974515 27 32.814-14 52 41.95         18.31GVEL119703
     K24L03H 1C2024 06 11.36423915 27 31.766-14 51 27.43         18.56GVEL119703
     K24L03H KB2024 06 11.55128015 27 07.921-14 00 48.26         18.6 VZEL119Q06
     K24L03H KB2024 06 11.55838115 27 06.027-13 58 50.59         18.9 VZEL119Q06
     K24L03H KB2024 06 11.56548115 27 04.221-13 56 53.03         17.4 VZEL119Q06
Observer details:
703 Catalina Sky Survey.  Observer T. Beuden.  Measurers T. Beuden, V. F.
    Carvajal, D. Fay, J. B. Fazekas, D. C. Fuls, A. R. Gibbs, A. D. Grauer, H.
    Groeller, J. K. Hogan, R. A. Kowalski, S. M. Larson, G. J. Leonard, D.
    Rankin, R. L. Seaman, F. C. Shelly, K. W. Wierzchos.  0.68-m Schmidt + 10K
    CCD.
958 Observatoire de Dax.  Observer P. Dupouy.  0.50-m f/4.5 Reflector + CMO.
E23 Arcadia.  Observer A. Hidas.  0.35-m f/1.9 reflector + CCD.
G96 Mt. Lemmon Survey.  Observer G. J. Leonard.  Measurers T. Beuden, V. F.
    Carvajal, D. Fay, J. B. Fazekas, D. C. Fuls, A. R. Gibbs, A. D. Grauer, H.
    Groeller, J. K. Hogan, R. A. Kowalski, S. M. Larson, G. J. Leonard, D.
    Rankin, R. L. Seaman, F. C. Shelly, K. W. Wierzchos.  1.5-m reflector +
    10K CCD.
H21 Astronomical Research Observatory, Westfield.  Observer R. Holmes.
    Measurers T. Linder, R. Holmes, L. Horn.  0.81-m f/4.0 astrograph + CCD.
H36 Sandlot Observatory, Scranton.  Observer G. Hug.  0.56-m f/4.8 reflector +
    CMO.
I52 Steward Observatory, Mt. Lemmon Station.  Observer J. B. Fazekas.
    Measurers T. Beuden, V. F. Carvajal, D. Fay, J. B. Fazekas, D. C. Fuls, A.
    R. Gibbs, A. D. Grauer, H. Groeller, J. K. Hogan, R. A. Kowalski, S. M.
    Larson, G. J. Leonard, D. Rankin, R. L. Seaman, F. C. Shelly, K. W.
    Wierzchos.  1.0-m prime focus + CCD.
J95 Great Shefford.  Observer P. Birtwhistle.  0.41-m f/6.3 Schmidt-Cassegrain
    + CCD.
M21 Schiaparelli Southern Observatory, Hakos.  Observers A. Aletti, F.
    Bellini, L. Buzzi, G. Galli.  Measurer G. Galli.  0.36-m f/8.4 reflector +
    CCD.
M28 Lesedi Telescope-SAAO Observatory, Sutherland.  Observers N. Erasmus, S.
    Potter, C. van Gend, S. Chandra, H. Worters.  Measurers T. Ngwane, N.
    Erasmus.  1.0-m f/8 Reflector + CCD.
Q06 Tarui Observatory, Tarui.  Observer H. Watanabe.  0.35-m f/1.9 Schmidt-
    Cassegrain + CMO.
U52 Shasta Valley Observatory, Grenada.  Observers J. E. Rogers, B. Haeusler.
    Measurers J. E. Rogers, D. Parrott.  0.30-m f/5.2 Helin Telescope + CCD.
Y05 SONEAR Wykrota-CEAMIG, Serra da Piedade.  Observers C. Jacques, A.
    Caetano, E. Pimentel.  Measurer C. Jacques.  0.45-m f/2.9 reflector + CMO.
Orbital elements:
2024 LH3                                                 Earth MOID = 0.0265 AU
Epoch 2024 Mar. 31.0 TT = JDT 2460400.5                 Veres                   
M 233.73951              (2000.0)            P               Q                  
n   0.85432322     Peri.   82.52621     +0.93446559     +0.31977132             
a   1.0999879      Node   258.72570     -0.35557814     +0.86083921             
e   0.1547225      Incl.    9.18780     +0.01839130     +0.39585624             
P   1.15           H   24.36          G   0.15           U   6                  
Residuals in seconds of arc
240610 G96  0.1-  0.0     240610 M28  0.3-  0.2-    240611 H36  0.1-  0.3+
240610 G96  0.1+  0.1-    240610 M28  0.4-  0.1-    240611 H36  0.1-  0.1+
240610 G96  0.1+  0.2-    240610 M21  0.3+  0.2+    240611 H21  0.3-  0.2+
240610 G96  0.1+  0.2+    240610 M21  0.1+  0.3-    240611 H21  0.1-  0.0
240610 I52  0.2-  0.0     240610 M21  0.4+  0.1-    240611 H21  0.1-  0.1+
240610 I52  0.1-  0.1+    240610 958  0.2+  0.4+    240611 H21  0.0   0.1+
240610 I52  0.0   0.2+    240610 J95  0.2+  0.0     240611 U52  0.5-  0.2-
240610 I52  0.0   0.0     240610 J95  0.2+  0.1-    240611 U52  0.2-  0.0
240610 I52  0.1-  0.2+    240610 J95  0.2-  0.0     240611 U52  0.2+  0.2-
240610 I52  0.0   0.1+    240610 958  0.8+  0.1+    240611 703  0.6+  0.0
240610 I52  0.1-  0.0     240610 958  0.1-  0.4+    240611 703  0.0   0.1+
240610 I52  0.1-  0.0     240610 958  0.2-  0.3-    240611 703  0.0   0.6+
240610 E23  0.1-  0.4+    240611 Y05  0.3-  0.2+    240611 Q06  0.5+  0.4-
240610 E23  0.1-  0.1+    240611 Y05  0.2-  0.1+    240611 Q06  0.4-  0.3-
240610 E23  0.4+  0.7+    240611 Y05  0.2-  0.2+    240611 Q06  0.0   0.5-
240610 M28  1.8-  0.5-    240611 H36  0.1+  0.3+
Ephemeris:
2024 LH3                 a,e,i = 1.10, 0.15, 9                   q = 0.9298
Date    TT    R. A. (2000) Decl.     Delta      r    Elong.  Phase     V
2024 05 12    16 20 17.8 -54 14 36   0.1441  1.1270   141.8    33.7    21.8
...
2024 05 27    16 03 49.0 -48 23 35   0.08484 1.0893   152.8    25.2    20.3
...
2024 06 04    15 47 19.6 -37 48 25   0.05766 1.0688   159.8    19.2    19.3
...
2024 06 10    15 31 38.0 -20 34 39   0.04151 1.0534   156.3    22.8    18.7
2024 06 11    15 28 45.7 -16 26 04   0.03944 1.0508   153.6    25.4    18.6
2024 06 12    15 25 48.8 -11 51 59   0.03762 1.0483   150.2    28.7    18.6
...
2024 06 18    15 06 05.9 +22 07 36   0.03350 1.0332   120.0    58.4    19.2
...
2024 06 26    14 29 16.5 +58 49 38   0.04588 1.0136    85.1    92.3    21.0
...
2024 07 11    11 17 45.2 +80 52 54   0.08840 0.9803    63.4   111.9    23.3
M. P. C. Staff               (C) Copyright 2024 MPC           M.P.E.C. 2024-L119
    
    
More information about the Iaude
mailing list